If you wish to contribute or participate in the discussions about articles you are invited to join SKYbrary as a registered user

 Actions

Tela Airport

From SKYbrary Wiki

MHTE
Airport
ICAO: MHTE – IATA: TEA
Summary
Name Tela Airport
Region South America and Caribbean
Territory Honduras HN.gif
Location Tela, Atlantida Department
Serving Tela
Coordinates 15° 46' 35.82" N, 87° 28' 21.29" W
Runways
Designator Length Width Surface ROPS
6/24 1346 m4,416.011 ft
30 m98.425 ft
ASP /


METAR
Observation MHTE 112000Z 36010KT 8000 VCSH SCT022TCU FEW024CB 29/26 Q1010 8 KM SW VCSH D/C UNL HZ
Station Tela
Date/Time 11 November 2019 20:00:00
Wind direction 360°
Wind speed 10 kts
Lowest cloud amount scattered clouds
Temperature 29°C
Dew point 26°C
Humidity 83%
QNH 1010 hPa
Weather condition n/a

Tela Airport is an airport serving Tela, a town in the Atlántida Department on the northern coast of Honduras.

Climatology

Tropical monsoon climate (Köppen climate classification Am)

Maps

Terrain

Loading map...

Airport Layout

Loading map...


Accidents & Serious Incidents at or in vicinity of MHTE

None on SKYbrary